H1 CPF 2 NER 2023 2 18 9 049 01 glonass146 H2 2216101 9146 54377 2023 2 18 0 0 0 2023 2 21 23 45 0 900 1 1 0 0 0 1 H9 10 0 59993 0.00000 0 -10928395.245 -7166785.364 21901738.504 10 0 59993 900.00000 0 -11277289.929 -9772417.645 20680982.497 10 0 59993 1800.00000 0 -11784326.658 -12173674.063 19058319.314 10 0 59993 2700.00000 0 -12411298.453 -14315821.401 17065186.806 10 0 59993 3600.00000 0 -13111605.681 -16153608.998 14740246.446 10 0 59993 4500.00000 0 -13832319.275 -17652930.415 12128637.599 10 0 59993 5400.00000 0 -14516529.660 -18792027.201 9281103.019 10 0 59993 6300.00000 0 -15105882.089 -19562184.467 6253002.217 10 0 59993 7200.00000 0 -15543190.782 -19967889.232 3103231.863 10 0 59993 8100.00000 0 -15775020.574 -20026445.221 -106925.422 10 0 59993 9000.00000 0 -15754125.796 -19767060.872 -3315000.867 10 0 59993 9900.00000 0 -15441642.023 -19229449.733 -6458563.658 10 0 59993 10800.00000 0 -14808936.695 -18462003.277 -9476444.480 10 0 59993 11700.00000 0 -13839039.166 -17519614.360 -12309933.673 10 0 59993 12600.00000 0 -12527588.646 -16461244.371 -14903929.678 10 0 59993 13500.00000 0 -10883259.155 -15347337.888 -17208014.726 10 0 59993 14400.00000 0 -8927642.808 -14237194.838 -19177436.465 10 0 59993 15300.00000 0 -6694595.827 -13186411.630 -20773976.307 10 0 59993 16200.00000 0 -4229074.246 -12244499.399 -21966687.892 10 0 59993 17100.00000 0 -1585507.719 -11452779.555 -22732491.888 10 0 59993 18000.00000 0 1174220.953 -10842644.754 -23056616.274 10 0 59993 18900.00000 0 3983106.711 -10434257.668 -22932874.437 10 0 59993 19800.00000 0 6771567.002 -10235741.269 -22363776.511 10 0 59993 20700.00000 0 9470095.165 -10242893.595 -21360472.560 10 0 59993 21600.00000 0 12011912.999 -10439437.899 -19942529.294 10 0 59993 22500.00000 0 14335513.233 -10797796.682 -18137545.025 10 0 59993 23400.00000 0 16386987.327 -11280356.287 -15980610.542 10 0 59993 24300.00000 0 18122043.021 -11841168.214 -13513626.362 10 0 59993 25200.00000 0 19507628.926 -12428015.194 -10784489.445 10 0 59993 26100.00000 0 20523099.768 -12984754.799 -7846164.956 10 0 59993 27000.00000 0 21160874.911 -13453841.757 -4755660.837 10 0 59993 27900.00000 0 21426563.863 -13778922.688 -1572924.769 10 0 59993 28800.00000 0 21338554.581 -13907393.848 1640315.221 10 0 59993 29700.00000 0 20927082.733 -13792814.013 4821744.235 10 0 59993 30600.00000 0 20232821.712 -13397070.630 7909665.085 10 0 59993 31500.00000 0 19305053.073 -12692207.619 10844190.741 10 0 59993 32400.00000 0 18199494.565 -11661837.374 13568401.727 10 0 59993 33300.00000 0 16975877.043 -10302076.758 16029446.279 10 0 59993 34200.00000 0 15695371.982 -8621966.789 18179562.198 10 0 59993 35100.00000 0 14417977.354 -6643357.131 19977000.952 10 0 59993 36000.00000 0 13199971.262 -4400258.720 21386836.505 10 0 59993 36900.00000 0 12091539.826 -1937689.943 22381643.470 10 0 59993 37800.00000 0 11134678.442 689937.238 22942031.703 10 0 59993 38700.00000 0 10361454.181 3420825.754 23057027.055 10 0 59993 39600.00000 0 9792702.039 6188114.550 22724290.755 10 0 59993 40500.00000 0 9437209.733 8922417.357 21950172.814 10 0 59993 41400.00000 0 9291425.408 11554474.839 20749597.828 10 0 59993 42300.00000 0 9339700.818 14017810.807 19145784.618 10 0 59993 43200.00000 0 9555060.105 16251282.637 17169804.252 10 0 59993 44100.00000 0 9900462.167 18201420.102 14859984.100 10 0 59993 45000.00000 0 10330503.679 19824455.135 12261168.678 10 0 59993 45900.00000 0 10793491.010 21087957.731 9423850.976 10 0 59993 46800.00000 0 11233793.349 21972009.412 6403190.811 10 0 59993 47700.00000 0 11594377.095 22469864.939 3257939.238 10 0 59993 48600.00000 0 11819413.547 22588074.557 49290.298 10 0 59993 49500.00000 0 11856848.478 22346061.829 -3160316.957 10 0 59993 50400.00000 0 11660823.596 21775175.324 -6308421.924 10 0 59993 51300.00000 0 11193846.087 20917254.812 -9333766.552 10 0 59993 52200.00000 0 10428613.131 19822773.326 -12177495.252 10 0 59993 53100.00000 0 9349413.007 18548634.463 -14784306.260 10 0 59993 54000.00000 0 7953042.575 17155718.816 -17103531.349 10 0 59993 54900.00000 0 6249201.496 15706283.837 -19090122.476 10 0 59993 55800.00000 0 4260345.919 14261327.356 -20705526.026 10 0 59993 56700.00000 0 2021007.164 12878026.041 -21918427.942 10 0 59993 57600.00000 0 -423396.505 11607356.491 -22705355.763 10 0 59993 58500.00000 0 -3018205.711 10491998.525 -23051126.614 10 0 59993 59400.00000 0 -5701555.134 9564607.879 -22949133.284 10 0 59993 60300.00000 0 -8406713.653 8846529.740 -22401463.712 10 0 59993 61200.00000 0 -11064632.601 8347005.812 -21418852.289 10 0 59993 62100.00000 0 -13606596.824 8062906.785 -20020464.569 10 0 59993 63000.00000 0 -15966869.160 7979000.101 -18233519.936 10 0 59993 63900.00000 0 -18085219.235 8068740.496 -16092759.768 10 0 59993 64800.00000 0 -19909232.454 8295549.063 -13639771.413 10 0 59993 65700.00000 0 -21396304.091 8614526.193 -10922180.960 10 0 59993 66600.00000 0 -22515236.467 8974525.667 -7992730.233 10 0 59993 67500.00000 0 -23247373.622 9320502.154 -4908255.674 10 0 59993 68400.00000 0 -23587227.099 9596032.864 -1728588.617 10 0 59993 69300.00000 0 -23542567.544 9745906.878 1484601.867 10 0 59993 70200.00000 0 -23133979.066 9718672.779 4669001.339 10 0 59993 71100.00000 0 -22393895.651 9469036.920 7762854.599 10 0 59993 72000.00000 0 -21365160.466 8960010.942 10706159.281 10 0 59993 72900.00000 0 -20099168.731 8164717.538 13441825.510 10 0 59993 73800.00000 0 -18653672.118 7067777.811 15916779.378 10 0 59993 74700.00000 0 -17090336.621 5666220.925 18082989.084 10 0 59993 75600.00000 0 -15472156.021 3969876.720 19898394.251 10 0 59993 76500.00000 0 -13860828.874 2001233.348 21327720.734 10 0 59993 77400.00000 0 -12314208.459 -205235.696 22343165.472 10 0 59993 78300.00000 0 -10883931.888 -2604248.847 22924938.325 10 0 59993 79200.00000 0 -9613327.162 -5141350.788 23061650.518 10 0 59993 80100.00000 0 -8535685.358 -7754937.489 22750541.985 10 0 59993 81000.00000 0 -7672969.994 -10378589.360 21997542.892 10 0 59993 81900.00000 0 -7035017.466 -12943616.848 20817167.553 10 0 59993 82800.00000 0 -6619262.016 -15381713.677 19232242.022 10 0 59993 83700.00000 0 -6410996.808 -17627608.066 17273469.759 10 0 59993 84600.00000 0 -6384160.185 -19621601.901 14978842.896 10 0 59993 85500.00000 0 -6502614.027 -21311892.037 12392909.669 10 0 59994 0.00000 0 -6721860.193 -22656576.530 9565911.911 10 0 59994 900.00000 0 -6991122.445 -23625262.220 6552807.367 10 0 59994 1800.00000 0 -7255705.010 -24200204.237 3412199.692 10 0 59994 2700.00000 0 -7459527.635 -24376931.700 205192.176 10 0 59994 3600.00000 0 -7547728.509 -24164331.332 -3005808.160 10 0 59994 4500.00000 0 -7469223.686 -23584186.372 -6158313.374 10 0 59994 5400.00000 0 -7179113.293 -22670190.419 -9190979.271 10 0 59994 6300.00000 0 -6640831.268 -21466478.373 -12044807.043 10 0 59994 7200.00000 0 -5827946.389 -20025737.168 -14664297.519 10 0 59994 8100.00000 0 -4725537.305 -18406976.737 -16998534.830 10 0 59994 9000.00000 0 -3331082.528 -16673055.892 -19002177.979 10 0 59994 9900.00000 0 -1654827.066 -14888067.884 -20636340.899 10 0 59994 10800.00000 0 280390.382 -13114695.936 -21869344.133 10 0 59994 11700.00000 0 2439842.968 -11411649.808 -22677324.057 10 0 59994 12600.00000 0 4778124.850 -9831290.649 -23044688.509 10 0 59994 13500.00000 0 7240813.874 -8417542.909 -22964410.844 10 0 59994 14400.00000 0 9766518.817 -7204179.710 -22438157.555 10 0 59994 15300.00000 0 12289226.359 -6213552.139 -21476247.724 10 0 59994 16200.00000 0 14740850.626 -5455814.101 -20097445.725 10 0 59994 17100.00000 0 17053879.876 -4928673.615 -18328591.598 10 0 59994 18000.00000 0 19164010.896 -4617679.371 -16204076.475 10 0 59994 18900.00000 0 21012662.248 -4497029.106 -13765173.258 10 0 59994 19800.00000 0 22549262.585 -4530864.549 -11059235.398 10 0 59994 20700.00000 0 23733219.410 -4674997.502 -8138779.119 10 0 59994 21600.00000 0 24535487.023 -4878993.588 -5060466.635 10 0 59994 22500.00000 0 24939668.924 -5088525.338 -1884009.803 10 0 59994 23400.00000 0 24942609.250 -5247894.996 1328984.713 10 0 59994 24300.00000 0 24554449.105 -5302620.345 4516206.560 10 0 59994 25200.00000 0 23798145.852 -5201974.217 7615846.194 10 0 59994 26100.00000 0 22708475.811 -4901370.268 10567789.499 10 0 59994 27000.00000 0 21330562.284 -4364494.054 13314779.584 10 0 59994 27900.00000 0 19717990.499 -3565089.053 15803523.478 10 0 59994 28800.00000 0 17930588.263 -2488321.717 17985722.503 10 0 59994 29700.00000 0 16031964.824 -1131667.156 19819006.739 10 0 59994 30600.00000 0 14086910.422 494723.010 21267755.804 10 0 59994 31500.00000 0 12158764.695 2368187.522 22303790.365 10 0 59994 32400.00000 0 10306863.268 4454251.836 22906921.216 10 0 59994 33300.00000 0 8584168.550 6707826.677 23065345.377 10 0 59994 34200.00000 0 7035183.165 9074860.620 22775881.408 10 0 59994 35100.00000 0 5694232.630 11494379.565 22044039.057 10 0 59994 36000.00000 0 4584188.696 13900829.713 20883921.296 10 0 59994 36900.00000 0 3715686.452 16226627.670 19317959.918 10 0 59994 37800.00000 0 3086867.749 18404812.366 17376488.908 10 0 59994 38700.00000 0 2683661.523 20371688.729 15097162.964 10 0 59994 39600.00000 0 2480589.038 22069352.899 12524231.615 10 0 59994 40500.00000 0 2442059.869 23447993.281 9707682.377 10 0 59994 41400.00000 0 2524103.556 24467870.720 6702269.179 10 0 59994 42300.00000 0 2676463.220 25100894.226 3566444.939 10 0 59994 43200.00000 0 2844961.769 25331725.565 361219.314 10 0 59994 44100.00000 0 2974039.538 25158365.852 -2851035.551 10 0 59994 45000.00000 0 3009354.657 24592199.196 -6007807.116 10 0 59994 45900.00000 0 2900334.695 23657491.572 -9047667.604 10 0 59994 46800.00000 0 2602570.113 22390366.276 -11911477.323 10 0 59994 47700.00000 0 2079946.881 20837299.584 -14543541.757 10 0 59994 48600.00000 0 1306426.883 19053200.602 -16892699.166 10 0 59994 49500.00000 0 267399.817 17099156.710 -18913317.104 10 0 59994 50400.00000 0 -1039451.261 15039939.995 -20566178.290 10 0 59994 51300.00000 0 -2603807.905 12941379.766 -21819238.871 10 0 59994 52200.00000 0 -4402912.634 10867711.428 -22648244.829 10 0 59994 53100.00000 0 -6402295.914 8879012.561 -23037195.242 10 0 59994 54000.00000 0 -8557003.656 7028832.866 -22978644.284 10 0 59994 54900.00000 0 -10813274.346 5362116.074 -22473836.942 10 0 59994 55800.00000 0 -13110596.140 3913499.366 -21532676.570 10 0 59994 56700.00000 0 -15384058.632 2706059.806 -20173525.574 10 0 59994 57600.00000 0 -17566901.806 1750558.428 -18422843.485 10 0 59994 58500.00000 0 -19593156.515 1045211.855 -16314669.680 10 0 59994 59400.00000 0 -21400267.114 575999.276 -13889960.820 10 0 59994 60300.00000 0 -22931587.570 317490.298 -11195795.704 10 0 59994 61200.00000 0 -24138647.523 234157.592 -8284462.790 10 0 59994 62100.00000 0 -24983094.353 282117.964 -5212447.787 10 0 59994 63000.00000 0 -25438230.622 411227.741 -2039340.719 10 0 59994 63900.00000 0 -25490083.084 567443.504 1173316.579 10 0 59994 64800.00000 0 -25137958.889 695348.171 4363220.328 10 0 59994 65700.00000 0 -24394465.949 740735.526 7468509.183 10 0 59994 66600.00000 0 -23284996.712 653143.861 10428959.857 10 0 59994 67500.00000 0 -21846696.942 388231.548 13187151.006 10 0 59994 68400.00000 0 -20126962.460 -90106.006 15689573.075 10 0 59994 69300.00000 0 -18181526.426 -807967.760 17887662.817 10 0 59994 70200.00000 0 -16072216.645 -1780101.977 19738742.810 10 0 59994 71100.00000 0 -13864475.969 -3009042.254 21206848.129 10 0 59994 72000.00000 0 -11624748.659 -4484762.177 22263424.445 10 0 59994 72900.00000 0 -9417840.969 -6184864.564 22887884.301 10 0 59994 73800.00000 0 -7304365.248 -8075299.102 23068010.872 10 0 59994 74700.00000 0 -5338373.433 -10111580.115 22800201.263 10 0 59994 75600.00000 0 -3565277.916 -12240455.415 22089544.311 10 0 59994 76500.00000 0 -2020145.942 -14401958.199 20949730.811 10 0 59994 77400.00000 0 -726438.322 -16531757.767 19402797.140 10 0 59994 78300.00000 0 304755.243 -18563712.019 17478706.398 10 0 59994 79200.00000 0 1074952.542 -20432515.820 15214774.212 10 0 59994 80100.00000 0 1597977.357 -22076334.786 12654949.581 10 0 59994 81000.00000 0 1899133.171 -23439314.184 9848963.997 10 0 59994 81900.00000 0 2013887.371 -24473857.399 6851365.000 10 0 59994 82800.00000 0 1986122.094 -25142577.702 3720452.885 10 0 59994 83700.00000 0 1866026.489 -25419840.612 517141.515 10 0 59994 84600.00000 0 1707720.537 -25292831.233 -2696234.013 10 0 59994 85500.00000 0 1566712.271 -24762101.082 -5857138.746 10 0 59995 0.00000 0 1497297.396 -23841571.061 -8904063.257 10 0 59995 900.00000 0 1550012.803 -22557989.790 -11777729.729 10 0 59995 1800.00000 0 1769253.226 -20949871.543 -14422250.234 10 0 59995 2700.00000 0 2191152.955 -19065957.186 -16786219.342 10 0 59995 3600.00000 0 2841823.322 -16963264.404 -18823715.227 10 0 59995 4500.00000 0 3736021.154 -14704809.178 -20495191.318 10 0 59995 5400.00000 0 4876304.973 -12357094.510 -21768241.049 10 0 59995 6300.00000 0 6252714.907 -9987471.697 -22618221.401 10 0 59995 7200.00000 0 7842990.128 -7661484.459 -23028723.765 10 0 59995 8100.00000 0 9613314.910 -5440306.370 -22991883.880 10 0 59995 9000.00000 0 11519562.378 -3378377.689 -22508525.638 10 0 59995 9900.00000 0 13508984.137 -1521339.055 -21588136.774 10 0 59995 10800.00000 0 15522275.525 95653.322 -20248677.531 10 0 59995 11700.00000 0 17495930.646 1449162.347 -18516226.424 10 0 59995 12600.00000 0 19364789.304 2528204.901 -16424470.249 10 0 59995 13500.00000 0 21064669.997 3334458.015 -14014048.230 10 0 59995 14400.00000 0 22534979.566 3881929.522 -11331762.922 10 0 59995 15300.00000 0 23721190.953 4196108.614 -8429673.002 10 0 59995 16200.00000 0 24577085.965 4312633.381 -5364085.261 10 0 59995 17100.00000 0 25066669.629 4275532.492 -2194465.105 10 0 59995 18000.00000 0 25165676.315 4135115.945 1017713.519 10 0 59995 18900.00000 0 24862604.758 3945604.398 4210156.655 10 0 59995 19800.00000 0 24159238.687 3762597.520 7320954.475 10 0 59995 20700.00000 0 23070631.172 3640488.477 10289777.790 10 0 59995 21600.00000 0 21624553.126 3629933.868 13059043.936 10 0 59995 22500.00000 0 19860428.638 3775486.078 15575029.689 10 0 59995 23400.00000 0 17827801.165 4113488.191 17788909.860 10 0 59995 24300.00000 0 15584394.004 4670320.602 19657701.835 10 0 59995 25200.00000 0 13193845.229 5461073.802 21145098.079 10 0 59995 26100.00000 0 10723210.725 6488704.054 22222170.804 10 0 59995 27000.00000 0 8240338.469 7743708.578 22867935.394 10 0 59995 27900.00000 0 5811222.477 9204335.310 23069761.796 10 0 59995 28800.00000 0 3497445.742 10837319.995 22823625.755 10 0 59995 29700.00000 0 1353817.805 12599121.449 22134194.763 10 0 59995 30600.00000 0 -573695.382 14437604.929 21014746.459 10 0 59995 31500.00000 0 -2249663.548 16294104.687 19486920.325 10 0 59995 32400.00000 0 -3650436.093 18105780.613 17580306.625 10 0 59995 33300.00000 0 -4764886.370 19808171.246 15331879.595 10 0 59995 34200.00000 0 -5594625.516 21337836.621 12785285.083 10 0 59995 35100.00000 0 -6153677.298 22634980.224 9989995.735 10 0 59995 36000.00000 0 -6467628.155 23645939.680 7000349.743 10 0 59995 36900.00000 0 -6572288.903 24325440.819 3874491.763 10 0 59995 37800.00000 0 -6511925.401 24638519.533 673236.844 10 0 59995 38700.00000 0 -6337133.968 24562029.541 -2541119.929 10 0 59995 39600.00000 0 -6102452.605 24085671.723 -5706024.044 10 0 59995 40500.00000 0 -5863810.449 23212500.909 -8759887.635 10 0 59995 41400.00000 0 -5675924.833 21958888.299 -11643296.113 10 0 59995 42300.00000 0 -5589757.466 20353940.851 -14300170.865 10 0 59995 43200.00000 0 -5650138.617 18438402.075 -16678864.629 10 0 59995 44100.00000 0 -5893660.782 16263080.608 -18733167.758 10 0 59995 45000.00000 0 -6346931.619 13886872.807 -20423205.618 10 0 59995 45900.00000 0 -7025260.404 11374462.511 -21716209.873 10 0 59995 46800.00000 0 -7931833.715 8793794.347 -22587149.149 10 0 59995 47700.00000 0 -9057415.199 6213426.130 -23019207.503 10 0 59995 48600.00000 0 -10380582.093 3699870.458 -23004102.264 10 0 59995 49500.00000 0 -11868488.654 1315035.631 -22542235.924 10 0 59995 50400.00000 0 -13478124.511 -886128.487 -21642679.913 10 0 59995 51300.00000 0 -15158015.395 -2857682.981 -20322991.236 10 0 59995 52200.00000 0 -16850295.287 -4564366.887 -18608865.947 10 0 59995 53100.00000 0 -18493063.544 -5982810.921 -16533636.453 10 0 59995 54000.00000 0 -20022928.791 -7102249.199 -14137622.449 10 0 59995 54900.00000 0 -21377633.514 -7924701.062 -11467347.928 10 0 59995 55800.00000 0 -22498649.907 -8464617.133 -8574639.304 10 0 59995 56700.00000 0 -23333638.612 -8748006.054 -5515621.871 10 0 59995 57600.00000 0 -23838667.679 -8811079.905 -2349633.776 10 0 59995 58500.00000 0 -23980098.893 -8698476.357 861921.607 10 0 59995 59400.00000 0 -23736062.469 -8461133.235 4056762.848 10 0 59995 60300.00000 0 -23097458.231 -8153905.645 7172934.346 10 0 59995 61200.00000 0 -22068441.037 -7833026.512 10150003.685 10 0 59995 62100.00000 0 -20666369.755 -7553517.875 12930229.478 10 0 59995 63000.00000 0 -18921221.341 -7366662.254 15459677.263 10 0 59995 63900.00000 0 -16874493.830 -7317640.859 17689262.104 10 0 59995 64800.00000 0 -14577643.223 -7443438.363 19575698.043 10 0 59995 65700.00000 0 -12090118.524 -7771102.787 21082336.371 10 0 59995 66600.00000 0 -9477075.808 -8316434.295 22179876.803 10 0 59995 67500.00000 0 -6806865.414 -9083158.735 22846938.028 10 0 59995 68400.00000 0 -4148395.730 -10062621.718 23070476.722 10 0 59995 69300.00000 0 -1568482.172 -11234017.276 22846046.773 10 0 59995 70200.00000 0 870709.326 -12565142.925 22177893.410 10 0 59995 71100.00000 0 3114018.844 -14013650.960 21078879.847 10 0 59995 72000.00000 0 5115351.585 -15528744.928 19570247.108 10 0 59995 72900.00000 0 6839354.310 -17053251.399 17681210.809 10 0 59995 73800.00000 0 8262639.637 -18525981.126 15448401.776 10 0 59995 74700.00000 0 9374507.343 -19884281.073 12915160.498 10 0 59995 75600.00000 0 10177132.904 -21066670.294 10130698.418 10 0 59995 76500.00000 0 10685215.806 -22015448.653 7149141.903 10 0 59995 77400.00000 0 10925102.988 -22679167.973 4028477.419 10 0 59995 78300.00000 0 10933425.146 -23014860.701 829418.636 10 0 59995 79200.00000 0 10755304.367 -22989931.105 -2385781.906 10 0 59995 80100.00000 0 10442209.969 -22583628.211 -5554552.584 10 0 59995 81000.00000 0 10049554.508 -21788037.365 -8615229.155 10 0 59995 81900.00000 0 9634132.999 -20608547.790 -11508263.001 10 0 59995 82800.00000 0 9251515.049 -19063775.852 -14177386.582 10 0 59995 83700.00000 0 8953501.451 -17184946.934 -16570712.660 10 0 59995 84600.00000 0 8785753.800 -15014761.733 -18641745.408 10 0 59995 85500.00000 0 8785698.030 -12605794.641 -20350283.527 10 0 59996 0.00000 0 8980790.837 -10018491.622 -21663197.906 10 0 59996 900.00000 0 9387222.402 -7318849.988 -22555069.824 10 0 59996 1800.00000 0 10009109.770 -4575880.398 -23008676.290 10 0 59996 2700.00000 0 10838214.952 -1858952.024 -23015316.307 10 0 59996 3600.00000 0 11854199.171 764865.696 -22574970.720 10 0 59996 4500.00000 0 13025402.419 3233356.272 -21696294.120 10 0 59996 5400.00000 0 14310115.420 5491499.053 -20396439.470 10 0 59996 6300.00000 0 15658290.607 7493505.785 -18700719.312 10 0 59996 7200.00000 0 17013620.446 9204467.590 -16642110.372 10 0 59996 8100.00000 0 18315896.104 10601545.578 -14260611.261 10 0 59996 9000.00000 0 19503547.841 11674657.173 -11602465.586 10 0 59996 9900.00000 0 20516260.847 12426631.257 -8719265.406 10 0 59996 10800.00000 0 21297557.026 12872827.279 -5666952.137 10 0 59996 11700.00000 0 21797234.644 13040235.777 -2504734.062 10 0 59996 12600.00000 0 21973563.511 12966099.305 706058.802 10 0 59996 13500.00000 0 21795143.566 12696112.732 3903160.429 10 0 59996 14400.00000 0 21242348.678 12282279.377 7024572.326 10 0 59996 15300.00000 0 20308294.759 11780513.771 10009761.670 10 0 59996 16200.00000 0 18999291.069 11248092.322 12800831.009 10 0 59996 17100.00000 0 17334755.097 10741059.454 15343637.111 10 0 59996 18000.00000 0 15346593.721 10311698.540 17588837.517 10 0 59996 18900.00000 0 13078075.478 10006174.184 19492844.884 10 0 59996 19800.00000 0 10582239.829 9862445.159 21018670.995 10 0 59996 20700.00000 0 7919908.523 9908536.017 22136644.401 10 0 59996 21600.00000 0 5157380.542 10161240.404 22824988.061 10 0 59996 22500.00000 0 2363905.213 10625311.148 23070245.933 10 0 59996 23400.00000 0 -390962.672 11293171.977 22867550.136 10 0 59996 24300.00000 0 -3040016.932 12145163.947 22220723.224 10 0 59996 25200.00000 0 -5520953.955 13150317.429 21142213.053 10 0 59996 26100.00000 0 -7778721.068 14267618.409 19652860.731 10 0 59996 27000.00000 0 -9767562.203 15447717.066 17781505.294 10 0 59996 27900.00000 0 -11452676.039 16635007.811 15564431.806 10 0 59996 28800.00000 0 -12811417.721 17769993.959 13044672.730 10 0 59996 29700.00000 0 -13833994.199 18791837.856 10271175.416 10 0 59996 30600.00000 0 -14523624.351 19640988.960 7297851.402 10 0 59996 31500.00000 0 -14896157.627 20261778.596 4182525.915 10 0 59996 32400.00000 0 -14979167.826 20604871.127 985808.224 10 0 59996 33300.00000 0 -14810561.023 20629467.033 -2230094.634 10 0 59996 34200.00000 0 -14436757.384 20305163.693 -5402596.766 10 0 59996 35100.00000 0 -13910524.875 19613394.139 -8469960.253 10 0 59996 36000.00000 0 -13288557.714 18548382.016 -11372504.944 10 0 59996 36900.00000 0 -12628903.275 17117571.539 -14053776.621 10 0 59996 37800.00000 0 -11988347.437 15341513.741 -16461650.028 10 0 59996 38700.00000 0 -11419869.905 13253213.292 -18549344.782 10 0 59996 39600.00000 0 -10970277.747 10896963.120 -20276334.194 10 0 59996 40500.00000 0 -10678117.423 8326715.536 -21609129.497 10 0 59996 41400.00000 0 -10571953.490 5604057.902 -22521924.708 10 0 59996 42300.00000 0 -10669086.275 2795877.282 -22997090.260 10 0 59996 43200.00000 0 -10974762.128 -28188.848 -23025506.669 10 0 59996 44100.00000 0 -11481908.877 -2798410.164 -22606732.594 10 0 59996 45000.00000 0 -12171407.081 -5447619.452 -21749004.864 10 0 59996 45900.00000 0 -13012885.095 -7913757.539 -20469071.094 10 0 59996 46800.00000 0 -13966004.183 -10142202.602 -18791858.634 10 0 59996 47700.00000 0 -14982179.395 -12087788.374 -16749986.528 10 0 59996 48600.00000 0 -16006663.837 -13716428.845 -14383130.030 10 0 59996 49500.00000 0 -16980908.798 -15006283.383 -11737249.883 10 0 59996 50400.00000 0 -17845100.660 -15948415.328 -8863701.182 10 0 59996 51300.00000 0 -18540768.129 -16546918.113 -5818238.801 10 0 59996 52200.00000 0 -19013350.332 -16818505.112 -2659938.467 10 0 59996 53100.00000 0 -19214617.843 -16791581.686 549945.838 10 0 59996 54000.00000 0 -19104844.839 -16504839.422 3749166.147 10 0 59996 54900.00000 0 -18654640.871 -16005432.508 6875683.698 10 0 59996 55800.00000 0 -17846364.928 -15346813.474 9868867.809 10 0 59996 56700.00000 0 -16675061.877 -14586319.757 12670667.426 10 0 59996 57600.00000 0 -15148881.207 -13782612.808 15226732.837 10 0 59996 58500.00000 0 -13288959.593 -12993077.514 17487466.122 10 0 59996 59400.00000 0 -11128771.036 -12271291.280 19408980.304 10 0 59996 60300.00000 0 -8712970.374 -11664669.063 20953949.027 10 0 59996 61200.00000 0 -6095777.002 -11212383.300 22092330.615 10 0 59996 62100.00000 0 -3338964.617 -10943646.134 22801952.781 10 0 59996 63000.00000 0 -509539.097 -10876426.264 23068946.786 10 0 59996 63900.00000 0 2322800.353 -11016654.706 22888022.563 10 0 59996 64800.00000 0 5088312.610 -11357953.348 22262579.180 10 0 59996 65700.00000 0 7719869.600 -11881898.483 21204647.966 10 0 59996 66600.00000 0 10155505.298 -12558809.085 19734668.641 10 0 59996 67500.00000 0 12340753.448 -13349027.602 17881101.910 10 0 59996 68400.00000 0 14230677.065 -14204640.163 15679885.071 10 0 59996 69300.00000 0 15791505.336 -15071564.433 13173740.310 10 0 59996 70200.00000 0 17001809.676 -15891917.429 10411348.397 10 0 59996 71100.00000 0 17853169.879 -16606563.445 7446403.331 10 0 59996 72000.00000 0 18350302.611 -17157734.129 4336566.223 10 0 59996 72900.00000 0 18510647.229 -17491609.285 1142338.942 10 0 59996 73800.00000 0 18363426.941 -17560748.356 -2074119.994 10 0 59996 74700.00000 0 17948225.660 -17326268.541 -5250213.388 10 0 59996 75600.00000 0 17313141.659 -16759676.255 -8324132.440 10 0 59996 76500.00000 0 16512597.097 -15844273.262 -11236068.043 10 0 59996 77400.00000 0 15604897.249 -14576077.049 -13929381.600 10 0 59996 78300.00000 0 14649643.654 -12964215.669 -16351711.825 10 0 59996 79200.00000 0 13705111.506 -11030779.740 -18455995.437 10 0 59996 80100.00000 0 12825702.716 -8810137.304 -20201381.654 10 0 59996 81000.00000 0 12059582.506 -6347739.931 -21554022.878 10 0 59996 81900.00000 0 11446599.207 -3698469.787 -22487726.630 10 0 59996 82800.00000 0 11016574.586 -924596.507 -22984456.765 10 0 59996 83700.00000 0 10788036.035 1906571.229 -23034675.038 10 0 59996 84600.00000 0 10767443.157 4725242.040 -22637517.294 10 0 59996 85500.00000 0 10948940.343 7461800.365 -21800801.616 99